St. Johns, AZ

8:28 PM MST on July 23, 2017 (GMT -0700)
Saint Johns Industrial

Weather History for KSJN - August, 2013

Change the Weather History Date:

Saturday, August 10, 2013

  Actual Average (KLSB) Record (KLSB)
Temperature  
Mean Temperature 60 °F -  
Max Temperature 77 °F 92 °F 91 °F (2015)
Min Temperature 44 °F 62 °F 62 °F (2014)
Degree Days  
Heating Degree Days 4    
Growing Degree Days 10 (Base 50)    
Moisture  
Dew Point 48 °F    
Average Humidity 51    
Maximum Humidity 72    
Minimum Humidity 11    
Precipitation  
Precipitation 0.00 in - - ()
Sea Level Pressure  
Sea Level Pressure 30.07 in    
Wind  
Wind Speed 8 mph (SE)    
Max Wind Speed 36 mph    
Max Gust Speed 50 mph    
Visibility 10 miles    
Events Rain , Thunderstorm    
Averages and records for this station are not official NWS values.
T = Trace of Precipitation, MM = Missing Value Source: NWS Daily Summary

Daily Weather History Graph

Daily Weather History Graph

Search for Another Location

Airport or City:

Trip Planner

Search our weather history database for the weather conditions in past years. The results will help you decide how hot, cold, wet, or windy it might be!

Date:

Astronomy

Aug. 10, 2013 Rise Set
Actual Time 5:34 AM MST 7:10 PM MST
Civil Twilight 5:07 AM MST 7:37 PM MST
Nautical Twilight 4:35 AM MST 8:09 PM MST
Astronomical Twilight 4:01 AM MST 8:43 PM MST
Moon 9:12 AM MST (8/10) 9:07 PM MST (8/10)
Length of Visible Light 14h 29m
Length of Day
13h 35m
Waxing Crescent, 15% of the Moon is Illuminated
Aug 10
Waxing Crescent
Aug 14
First Quarter
Aug 20
Full
Aug 28
Last Quarter
Sep 5
New

Hourly Weather History & Observations

Time (MST) Temp. Dew Point Humidity Pressure Visibility Wind Dir Wind Speed Gust Speed Precip Events Conditions
12:54 AM 62.1 °F 44.1 °F 52% 29.92 in 10.0 mi SW 5.8 mph - N/A   Clear
1:54 AM 61.0 °F 43.0 °F 52% 29.92 in 10.0 mi South 3.5 mph - N/A   Clear
2:54 AM 57.9 °F 43.0 °F 58% 29.94 in 10.0 mi Calm Calm - N/A   Clear
3:54 AM 57.0 °F 44.1 °F 62% 29.95 in 10.0 mi Calm Calm - N/A   Clear
4:54 AM 55.0 °F 44.1 °F 67% 29.96 in 10.0 mi Calm Calm - N/A   Clear
5:54 AM 55.0 °F 44.1 °F 67% 29.99 in 10.0 mi SW 5.8 mph - N/A   Scattered Clouds
6:54 AM 61.0 °F 45.0 °F 56% 29.99 in 10.0 mi NE 3.5 mph - N/A   Clear
7:54 AM 66.9 °F 44.1 °F 44% 30.01 in 10.0 mi North 4.6 mph - N/A   Scattered Clouds
8:54 AM 73.9 °F 44.1 °F 34% 30.01 in 10.0 mi Calm Calm - N/A   Partly Cloudy
9:54 AM 78.1 °F 44.1 °F 30% 29.99 in 10.0 mi SSE 5.8 mph - N/A   Clear
10:54 AM 82.9 °F 45.0 °F 26% 29.96 in 10.0 mi Variable 4.6 mph - N/A   Clear
11:54 AM 82.0 °F 46.0 °F 28% 29.96 in 10.0 mi Variable 3.5 mph - N/A   Mostly Cloudy
12:13 PM 80.6 °F 46.4 °F 30% 30.24 in 10.0 mi South 6.9 mph - 0.00 in Rain , Thunderstorm Light Rain
12:54 PM 75.9 °F 55.0 °F 48% 29.99 in 10.0 mi SSE 11.5 mph - 0.00 in Rain , Thunderstorm Light Rain
1:10 PM 78.8 °F 50.0 °F 36% 30.23 in 10.0 mi SE 11.5 mph - 0.00 in   Scattered Clouds
1:54 PM 78.1 °F 50.0 °F 37% 29.96 in 10.0 mi ESE 6.9 mph - 0.00 in   Scattered Clouds
2:54 PM 77.0 °F 55.0 °F 47% 29.95 in 10.0 mi ESE 10.4 mph - N/A Thunderstorm Clear
3:14 PM 78.8 °F 53.6 °F 42% 30.20 in 10.0 mi SE 11.5 mph - N/A   Clear
3:54 PM 84.0 °F 46.0 °F 26% 29.91 in 10.0 mi ESE 6.9 mph - N/A   Clear
4:54 PM 77.0 °F 53.1 °F 43% 29.96 in 10.0 mi East 23.0 mph 29.9 mph N/A   Scattered Clouds
5:06 PM 75.2 °F 51.8 °F 44% 30.19 in 10.0 mi ESE 19.6 mph 29.9 mph N/A Thunderstorm Mostly Cloudy
5:42 PM 71.6 °F 51.8 °F 50% 30.20 in 10.0 mi ESE 13.8 mph 26.5 mph N/A   Mostly Cloudy
5:49 PM 69.8 °F 53.6 °F 56% 30.19 in 10.0 mi ESE 13.8 mph 21.9 mph 0.01 in Rain , Thunderstorm Light Thunderstorms and Rain
5:54 PM 69.1 °F 54.0 °F 58% 29.98 in 10.0 mi ESE 13.8 mph 21.9 mph 0.01 in Rain , Thunderstorm Light Thunderstorms and Rain
6:54 PM 66.0 °F 53.1 °F 63% 30.01 in 10.0 mi SE 17.3 mph - 0.00 in Rain , Thunderstorm Light Rain
7:34 PM 64.4 °F 53.6 °F 68% 30.23 in 10.0 mi SE 24.2 mph 31.1 mph 0.01 in Rain Light Rain
7:44 PM 64.4 °F 53.6 °F 68% 30.25 in 10.0 mi SE 21.9 mph 32.2 mph 0.02 in Rain , Thunderstorm Light Thunderstorms and Rain
7:54 PM 63.0 °F 54.0 °F 72% 30.03 in 10.0 mi SE 18.4 mph 28.8 mph 0.02 in Rain , Thunderstorm Light Thunderstorms and Rain
8:31 PM 62.6 °F 53.6 °F 72% 30.27 in 10.0 mi SE 24.2 mph 34.5 mph 0.01 in Rain Light Rain
8:39 PM 64.4 °F 53.6 °F 68% 30.28 in 10.0 mi SSE 19.6 mph 35.7 mph 0.01 in Rain , Thunderstorm Light Rain
8:54 PM 63.0 °F 53.1 °F 70% 30.01 in 9.0 mi ESE 35.7 mph 49.5 mph 0.02 in Rain , Thunderstorm Light Thunderstorms and Rain
9:03 PM 62.6 °F 53.6 °F 72% 30.27 in 10.0 mi SE 25.3 mph 40.3 mph 0.00 in Rain Light Rain
9:54 PM 62.1 °F 51.1 °F 67% 30.05 in 10.0 mi SSE 10.4 mph 21.9 mph 0.00 in   Partly Cloudy
10:13 PM 62.6 °F 51.8 °F 68% 30.31 in 10.0 mi SE 6.9 mph - N/A Thunderstorm Clear
10:28 PM 62.6 °F 50.0 °F 63% 30.32 in 10.0 mi Calm Calm - N/A   Mostly Cloudy
10:54 PM 62.1 °F 50.0 °F 65% 30.03 in 10.0 mi SE 10.4 mph - 0.00 in Rain Light Rain
11:54 PM 62.1 °F 50.0 °F 65% 30.04 in 10.0 mi ESE 5.8 mph - 0.00 in   Mostly Cloudy